Temp
61 61 62 63 64 64 63 63 64 64 65 65 65 65 66 66 66 65 64 63 63 63 64 64 64 64 64 65 65 65 65 64 64 62 62 63 61 61 62 62 62 63 63 62 61 59 57 56 58 61 62 63 63 63 64 65 65 65 64 64 66 66 66
63 62 63 63 62 63 62 62 63 63 64 64 64 64 65 65 65 64 64 63 63 63 64 64 64 64 64 64 63 63 63 64 64 64 63 62 62 62 61 61 61 61 61 61 61 61 57 56 57 58 59 62 62 63 63 65 66 65 65 65 66 65 65
61 62 62 60 60 60 60 61 61 61 61 62 63 64 64 64 64 64 63 63 63 63 64 64 64 64 63 63 63 63 64 63 64 64 63 63 63 63 63 62 60 60 60 59 59 59 59 59 56 58 59 59 58 61 63 63 64 65 66 66 65 65 65
60 60 59 59 60 60 59 59 60 60 61 61 62 62 62 63 64 64 63 63 63 63 63 63 63 63 63 63 64 64 63 63 63 64 63 63 63 62 62 61 60 60 59 58 59 59 59 58 57 57 59 60 60 59 62 64 64 66 66 65 64 64 66
59 59 58 58 58 58 59 58 58 58 59 60 61 60 61 62 63 62 63 63 63 63 63 63 63 64 64 64 64 63 63 64 64 64 63 63 63 63 62 62 62 62 61 60 61 60 59 59 59 58 58 60 60 60 62 62 65 65 65 65 66 66 66
57 57 57 57 57 57 57 57 57 57 58 58 59 59 59 60 61 61 61 61 61 61 60 60 61 63 63 63 63 63 63 63 63 63 62 63 63 62 62 63 62 62 61 62 62 61 61 61 60 58 59 60 58 59 61 62 61 63 65 66 66 67 68
55 55 55 54 55 55 56 55 55 56 55 55 57 57 58 59 59 60 61 60 58 58 58 58 58 58 59 60 62 62 63 63 63 63 63 63 62 63 63 62 62 62 62 62 62 61 60 60 59 58 59 59 59 58 59 59 61 60 62 64 66 68 68
54 54 54 54 53 53 54 53 54 54 54 55 55 56 58 57 58 59 59 57 57 56 56 56 56 56 56 57 57 58 60 61 60 62 62 62 62 62 62 62 62 62 62 62 62 62 62 61 60 60 58 56 57 58 58 59 59 60 61 63 65 67 68
55 54 53 53 53 53 52 52 52 52 54 54 55 55 55 56 56 57 58 57 56 55 55 55 55 54 55 54 55 55 55 57 56 57 59 61 62 63 62 63 62 62 63 63 63 62 62 62 62 61 60 58 56 55 57 56 57 58 63 62 63 66 67
53 52 52 52 52 53 52 52 52 52 53 53 53 54 53 54 55 55 56 56 55 55 54 53 53 52 52 53 52 53 54 54 54 54 55 57 59 61 62 62 62 62 62 63 63 63 63 62 62 62 61 60 59 56 55 55 57 57 60 63 61 63 66
52 52 52 52 53 52 52 53 52 52 52 53 53 53 53 52 53 54 54 55 54 53 52 52 51 51 50 49 49 50 51 52 52 53 54 54 55 57 60 62 62 62 63 62 62 63 62 62 62 62 61 61 61 58 57 55 57 59 59 62 63 62 64
52 52 52 52 52 53 53 53 52 52 52 53 53 52 52 52 52 52 53 53 53 52 51 50 50 49 49 47 47 47 48 49 49 50 51 52 53 55 56 57 60 61 62 62 62 62 63 62 62 62 62 61 61 60 59 58 55 59 62 59 61 64 64
52 51 52 52 52 53 55 55 54 52 52 53 54 54 53 53 53 52 52 53 52 51 50 49 49 48 47 47 46 46 48 48 48 48 49 51 52 52 53 54 55 57 60 62 62 62 62 62 62 62 62 61 61 61 60 58 57 58 61 61 61 63 65
50 51 51 52 53 54 55 56 54 52 52 50 52 53 53 53 53 52 52 52 52 50 49 48 49 48 47 46 46 46 47 47 47 48 49 50 51 51 51 51 53 55 57 58 60 62 62 62 62 62 62 61 61 62 60 59 58 58 61 62 61 61 63
50 50 50 51 52 52 53 53 54 52 49 49 50 50 52 52 52 52 51 51 50 50 49 49 48 48 46 46 45 46 46 46 46 47 48 48 49 50 50 50 51 52 55 55 56 58 60 62 62 62 61 61 61 61 62 60 58 58 58 61 60 62 62
49 49 49 49 49 50 50 51 53 50 49 49 50 50 51 51 51 51 50 50 49 49 49 48 48 47 46 45 45 45 46 46 46 46 46 47 48 49 49 50 50 52 52 52 53 54 56 58 61 61 62 62 61 61 62 62 60 58 58 59 62 61 61
49 48 48 48 48 49 49 49 51 50 49 49 49 50 51 51 51 50 50 49 49 49 48 47 46 46 45 45 44 44 45 46 46 46 46 47 48 49 49 49 50 51 51 51 51 52 54 56 57 59 61 62 62 62 62 62 61 59 59 58 61 61 62
48 48 48 48 48 48 48 49 49 49 48 47 48 48 50 51 50 50 48 49 49 48 47 46 45 45 44 45 45 44 45 45 46 47 47 47 49 49 49 49 50 51 51 50 51 51 52 53 54 55 57 59 61 62 62 62 61 61 59 59 60 61 62
48 48 48 47 48 48 48 48 48 48 48 46 47 47 47 48 49 48 48 48 48 47 46 46 45 44 44 44 44 44 45 45 46 47 48 49 49 50 50 50 50 51 50 50 50 51 52 53 54 54 54 55 57 60 61 62 61 61 60 60 60 60 60
47 47 47 47 47 48 47 47 47 47 48 47 46 45 46 46 46 46 46 46 46 46 45 45 44 43 43 43 43 43 44 45 46 46 48 49 50 50 51 51 51 51 51 51 51 51 51 51 52 52 53 53 54 54 56 59 61 60 60 60 60 60 60
47 47 47 47 46 46 47 47 47 47 47 46 46 45 45 45 45 46 45 45 46 46 45 44 44 43 43 43 43 43 43 44 45 47 48 49 50 51 51 51 51 51 51 52 51 50 49 49 49 49 50 51 52 53 54 56 58 59 59 59 59 59 59
46 46 46 46 46 46 46 46 46 46 46 46 46 46 45 45 44 44 45 44 44 45 44 44 44 43 42 42 42 42 43 44 45 46 47 48 49 49 50 50 50 51 52 52 50 49 49 49 48 47 48 49 49 49 51 54 56 58 59 59 59 60 59
45 45 45 45 45 45 45 45 45 45 45 45 45 45 44 45 44 43 43 43 44 44 43 44 44 42 42 42 42 42 43 44 45 46 46 46 47 48 49 49 49 51 49 49 49 47 46 46 47 48 47 47 47 47 47 49 52 55 58 58 58 58 57
44 44 44 44 44 44 44 44 44 44 44 44 44 44 44 43 43 43 43 42 42 43 43 44 42 40 40 41 42 42 42 43 45 45 45 45 45 46 47 48 48 49 49 49 49 47 45 45 44 44 45 46 47 46 45 45 48 52 55 57 59 59 58
43 43 43 43 43 43 43 43 42 42 42 42 43 43 42 42 42 42 42 42 42 42 43 44 40 40 40 40 41 42 42 42 43 44 45 45 45 46 46 46 47 47 48 49 49 48 47 45 44 43 42 42 43 43 43 45 46 48 52 55 57 58 59
42 42 42 42 42 42 42 41 41 41 41 42 42 41 41 41 41 41 41 41 41 42 42 42 40 40 40 39 39 41 42 42 42 43 43 44 45 45 45 45 45 46 47 48 48 47 46 45 44 43 43 43 43 43 41 41 42 46 51 52 55 57 59
41 41 41 41 41 41 40 40 40 41 41 41 40 40 40 40 41 40 41 41 40 41 42 42 40 40 40 39 39 40 42 42 42 43 43 43 44 44 45 44 44 44 45 46 46 45 44 43 43 43 44 45 45 46 44 43 42 42 45 50 53 55 59
40 40 40 40 40 40 40 39 40 40 39 39 39 39 39 39 40 40 40 40 40 40 41 41 40 40 39 39 39 40 41 42 42 42 42 43 43 44 45 44 44 44 44 44 44 44 42 41 41 42 43 44 46 46 46 47 48 50 51 50 51 54 57
39 39 39 39 39 39 39 38 38 39 40 39 39 39 39 39 39 38 39 40 40 40 41 40 40 40 39 39 39 41 41 41 41 41 41 42 43 44 45 44 44 43 43 43 43 40 40 41 41 41 42 45 46 46 46 47 45 46 51 56 56 55 56
39 38 38 39 39 38 38 38 38 39 38 38 38 38 38 38 39 38 39 39 39 40 40 41 40 40 39 39 40 41 41 41 41 40 40 41 43 44 44 45 44 43 42 42 41 39 39 40 41 41 42 44 46 45 45 48 46 44 43 44 46 47 48
38 38 38 38 37 37 37 38 38 39 36 37 38 37 39 38 38 38 39 38 41 39 39 41 40 40 39 39 40 40 40 40 39 39 40 41 42 43 44 45 45 43 41 41 40 38 38 40 41 41 42 43 44 46 47 50 51 52 46 45 45 45 45
37 37 38 37 37 37 37 38 37 37 37 36 37 37 40 37 38 38 39 39 42 39 39 41 41 39 39 39 40 41 40 39 38 38 39 40 42 42 42 43 43 42 41 40 38 38 38 40 40 41 42 41 42 44 46 47 50 53 55 53 52 51 50
38 37 36 36 37 37 38 36 36 36 37 36 37 37 37 37 36 38 38 38 39 39 39 40 42 39 40 39 39 40 40 38 37 37 39 40 39 40 41 41 42 40 38 38 38 38 38 39 40 41 41 40 40 41 45 48 48 49 53 52 53 52 52
37 36 37 37 39 38 36 36 36 36 36 36 36 36 36 37 36 37 37 38 38 39 40 41 41 40 40 39 39 39 39 38 38 38 38 39 39 38 39 39 40 40 38 38 38 38 39 39 39 41 40 39 40 40 43 47 47 47 48 48 47 47 48
39 40 39 37 36 37 36 36 37 35 35 35 35 36 36 36 36 36 37 37 38 38 40 42 41 40 39 39 39 39 39 38 38 38 38 38 38 38 38 39 39 40 38 38 38 38 38 39 39 41 39 38 39 39 44 46 46 46 46 46 46 45 45
39 40 39 37 36 36 36 36 36 36 35 35 35 36 36 35 35 36 36 37 38 38 38 40 40 40 40 39 39 39 38 38 37 39 38 37 37 38 39 39 40 40 38 38 38 38 39 38 40 39 38 38 39 39 43 45 45 45 44 44 44 43 43
36 35 38 37 37 37 36 36 36 36 35 35 35 36 36 35 35 35 35 36 37 38 38 38 39 40 40 39 39 38 38 37 38 38 39 38 39 39 39 39 39 38 38 38 38 38 38 39 38 38 38 38 39 40 42 42 43 43 43 42 42 42 42
MSLP
1019.70 1019.82 1019.66 1019.58 1019.42 1019.30 1019.26 1019.26 1019.18 1019.14 1019.06 1018.98 1018.90 1018.90 1018.90 1018.90 1018.86 1018.82 1018.74 1018.66 1018.62 1018.58 1018.58 1018.66 1018.70 1018.62 1018.58 1018.50 1018.46 1018.38 1018.34 1018.26 1018.22 1018.22 1018.22 1018.22 1018.46 1018.30 1018.14 1018.14 1018.06 1018.02 1018.10 1018.26 1018.30 1018.66 1018.66 1018.74 1017.90 1017.46 1017.34 1017.30 1017.34 1017.30 1017.26 1017.30 1017.30 1017.30 1017.38 1017.42 1017.42 1017.46 1017.50
1019.66 1019.74 1019.66 1019.58 1019.54 1019.46 1019.46 1019.38 1019.30 1019.34 1019.22 1019.18 1019.06 1019.02 1019.02 1019.02 1018.98 1018.90 1018.78 1018.66 1018.66 1018.62 1018.54 1018.62 1018.58 1018.54 1018.54 1018.50 1018.42 1018.42 1018.42 1018.30 1018.22 1018.14 1018.14 1018.06 1017.98 1018.02 1018.10 1018.02 1017.98 1017.98 1018.02 1018.06 1018.10 1018.22 1018.54 1018.62 1018.18 1017.94 1017.42 1017.18 1017.14 1017.02 1016.94 1016.82 1016.74 1016.82 1016.86 1016.86 1016.82 1016.98 1017.50
1019.74 1019.70 1019.66 1019.70 1019.70 1019.66 1019.62 1019.62 1019.62 1019.54 1019.50 1019.42 1019.34 1019.22 1019.18 1019.14 1019.10 1018.98 1018.86 1018.78 1018.78 1018.74 1018.62 1018.62 1018.58 1018.54 1018.46 1018.42 1018.34 1018.34 1018.30 1018.30 1018.14 1018.10 1018.06 1017.86 1017.74 1017.62 1017.66 1017.70 1017.90 1017.90 1017.94 1018.06 1018.02 1018.10 1018.06 1018.06 1018.14 1017.70 1017.38 1017.38 1017.46 1016.70 1016.58 1016.58 1016.42 1016.38 1016.38 1016.46 1016.62 1016.98 1017.10
1019.90 1019.78 1019.70 1019.78 1019.78 1019.74 1019.86 1019.86 1019.86 1019.90 1019.74 1019.70 1019.62 1019.46 1019.34 1019.30 1019.26 1019.14 1018.98 1018.94 1018.90 1018.82 1018.74 1018.70 1018.62 1018.54 1018.42 1018.34 1018.26 1018.22 1018.18 1018.18 1018.10 1017.98 1017.86 1017.74 1017.66 1017.62 1017.58 1017.62 1017.70 1017.74 1017.86 1017.94 1017.74 1017.66 1017.82 1017.82 1017.82 1017.62 1017.34 1017.06 1016.86 1016.78 1016.34 1015.98 1016.02 1015.94 1015.94 1016.06 1016.30 1016.54 1016.70
1020.06 1019.98 1020.06 1020.22 1020.22 1020.22 1020.18 1020.22 1020.14 1020.02 1019.98 1019.86 1019.74 1019.58 1019.58 1019.54 1019.42 1019.30 1019.18 1019.02 1018.98 1018.90 1018.90 1018.82 1018.66 1018.50 1018.34 1018.22 1018.14 1018.06 1018.06 1017.98 1017.94 1017.86 1017.78 1017.66 1017.54 1017.42 1017.38 1017.38 1017.34 1017.34 1017.34 1017.42 1017.18 1017.26 1017.46 1017.34 1017.34 1017.10 1016.98 1016.74 1016.74 1016.46 1015.86 1015.74 1015.58 1015.66 1015.62 1015.66 1015.66 1015.74 1015.90
1020.46 1020.50 1020.58 1020.66 1020.66 1020.62 1020.54 1020.54 1020.50 1020.46 1020.34 1020.22 1020.18 1020.06 1020.02 1019.90 1019.78 1019.62 1019.42 1019.34 1019.38 1019.30 1019.22 1019.14 1019.02 1018.70 1018.50 1018.26 1018.14 1018.02 1017.94 1017.94 1017.86 1017.78 1017.70 1017.62 1017.50 1017.38 1017.26 1017.10 1017.06 1017.02 1016.94 1016.78 1016.86 1016.94 1016.86 1016.82 1016.94 1016.90 1016.42 1016.38 1016.58 1016.26 1015.98 1015.94 1015.82 1015.46 1015.30 1015.26 1015.10 1015.18 1015.34
1020.94 1020.98 1021.06 1021.18 1021.18 1021.10 1021.02 1021.10 1021.10 1021.02 1020.98 1020.98 1020.78 1020.66 1020.54 1020.30 1020.18 1019.98 1019.74 1019.74 1019.86 1019.74 1019.62 1019.54 1019.34 1019.26 1019.06 1018.74 1018.34 1018.14 1017.98 1017.86 1017.78 1017.66 1017.54 1017.42 1017.34 1017.22 1017.10 1016.98 1016.86 1016.78 1016.66 1016.54 1016.70 1016.74 1016.74 1016.74 1016.70 1016.58 1016.38 1016.22 1016.26 1016.22 1015.90 1015.94 1015.58 1015.78 1015.34 1015.06 1014.78 1014.78 1014.82
1021.26 1021.34 1021.46 1021.50 1021.54 1021.54 1021.58 1021.62 1021.62 1021.50 1021.42 1021.34 1021.18 1021.10 1020.86 1020.70 1020.50 1020.26 1020.06 1020.06 1020.02 1019.98 1019.94 1019.78 1019.66 1019.50 1019.38 1019.22 1019.06 1018.74 1018.38 1018.18 1018.10 1017.78 1017.54 1017.34 1017.18 1017.06 1016.90 1016.78 1016.66 1016.54 1016.42 1016.26 1016.30 1016.46 1016.42 1016.38 1016.30 1016.18 1016.30 1016.46 1016.34 1016.18 1016.02 1015.70 1015.62 1015.46 1014.94 1014.58 1014.46 1014.46 1014.38
1021.50 1021.58 1021.66 1021.70 1021.78 1021.86 1021.98 1022.02 1022.02 1021.94 1021.82 1021.70 1021.54 1021.38 1021.30 1021.06 1020.82 1020.58 1020.30 1020.30 1020.30 1020.22 1020.22 1020.14 1019.98 1019.82 1019.66 1019.54 1019.42 1019.22 1019.02 1018.82 1018.66 1018.34 1017.86 1017.42 1017.10 1016.90 1016.74 1016.58 1016.50 1016.34 1016.18 1016.06 1016.02 1016.06 1016.06 1015.94 1015.86 1015.82 1015.98 1016.30 1016.38 1016.06 1015.78 1015.70 1015.50 1015.10 1014.62 1014.78 1014.42 1014.14 1014.06
1021.82 1021.90 1021.98 1022.02 1022.06 1022.10 1022.10 1022.18 1022.18 1022.14 1022.02 1021.90 1021.82 1021.62 1021.54 1021.34 1021.14 1020.90 1020.66 1020.54 1020.54 1020.46 1020.46 1020.34 1020.22 1020.18 1020.02 1019.90 1019.86 1019.58 1019.30 1019.06 1018.90 1018.66 1018.34 1018.02 1017.54 1016.98 1016.62 1016.46 1016.34 1016.18 1015.98 1015.82 1015.74 1015.70 1015.66 1015.58 1015.50 1015.46 1015.50 1015.66 1015.70 1015.82 1015.62 1015.42 1015.02 1014.98 1014.42 1014.46 1014.74 1014.14 1013.82
1022.18 1022.18 1022.14 1022.18 1022.18 1022.18 1022.22 1022.18 1022.14 1022.10 1022.14 1022.06 1021.94 1021.78 1021.66 1021.54 1021.42 1021.22 1021.06 1020.86 1020.86 1020.70 1020.70 1020.62 1020.54 1020.46 1020.38 1020.34 1020.30 1020.14 1019.90 1019.54 1019.22 1018.82 1018.58 1018.34 1017.98 1017.54 1016.94 1016.42 1016.14 1015.98 1015.74 1015.62 1015.54 1015.42 1015.38 1015.34 1015.30 1015.26 1015.22 1015.22 1015.22 1015.34 1015.26 1015.22 1014.62 1014.22 1014.18 1013.90 1013.94 1013.78 1013.54
1022.46 1022.38 1022.38 1022.30 1022.26 1022.18 1022.18 1022.22 1022.22 1022.30 1022.22 1022.06 1021.94 1021.82 1021.74 1021.66 1021.58 1021.50 1021.30 1021.18 1021.06 1020.98 1020.98 1020.94 1020.86 1020.78 1020.74 1020.74 1020.62 1020.50 1020.22 1019.98 1019.66 1019.26 1018.94 1018.62 1018.22 1017.86 1017.46 1017.02 1016.34 1015.94 1015.66 1015.46 1015.26 1015.14 1015.06 1015.02 1014.98 1014.94 1014.90 1014.78 1014.74 1014.78 1014.82 1014.78 1014.82 1013.54 1013.50 1013.74 1013.34 1013.06 1013.14
1022.70 1022.66 1022.58 1022.46 1022.34 1022.26 1022.22 1022.26 1022.38 1022.46 1022.46 1022.26 1022.02 1021.86 1021.82 1021.74 1021.70 1021.66 1021.54 1021.38 1021.30 1021.26 1021.22 1021.22 1021.14 1021.14 1021.10 1021.10 1021.06 1020.82 1020.54 1020.22 1019.90 1019.58 1019.18 1018.86 1018.54 1018.22 1017.82 1017.38 1016.98 1016.58 1015.90 1015.38 1015.14 1014.94 1014.78 1014.70 1014.62 1014.62 1014.50 1014.46 1014.34 1014.30 1014.30 1014.34 1014.38 1013.82 1013.22 1013.22 1012.98 1012.82 1012.74
1023.06 1023.02 1022.90 1022.70 1022.62 1022.58 1022.50 1022.46 1022.54 1022.78 1022.78 1022.58 1022.34 1022.06 1021.94 1021.98 1021.90 1021.86 1021.82 1021.70 1021.62 1021.70 1021.66 1021.50 1021.38 1021.30 1021.26 1021.22 1021.14 1021.02 1020.74 1020.42 1020.14 1019.74 1019.34 1018.94 1018.66 1018.42 1018.10 1017.82 1017.30 1016.82 1016.46 1016.02 1015.30 1014.86 1014.58 1014.42 1014.30 1014.22 1014.14 1014.10 1014.02 1013.90 1013.90 1013.90 1013.90 1013.62 1012.94 1012.78 1012.82 1012.70 1012.58
1023.34 1023.34 1023.22 1023.14 1023.10 1023.06 1023.02 1022.90 1022.82 1023.06 1023.10 1023.02 1022.78 1022.58 1022.34 1022.26 1022.26 1022.26 1022.18 1022.22 1022.14 1022.10 1021.98 1021.86 1021.70 1021.58 1021.50 1021.38 1021.22 1021.10 1020.90 1020.62 1020.34 1019.94 1019.54 1019.18 1018.82 1018.50 1018.26 1017.98 1017.58 1017.18 1016.74 1016.34 1015.86 1015.42 1014.78 1014.26 1013.98 1013.82 1013.70 1013.70 1013.62 1013.50 1013.38 1013.50 1013.42 1013.50 1013.06 1012.54 1012.74 1012.46 1012.54
1023.62 1023.62 1023.58 1023.58 1023.58 1023.54 1023.50 1023.38 1023.26 1023.38 1023.42 1023.34 1023.10 1022.86 1022.78 1022.66 1022.66 1022.62 1022.58 1022.58 1022.54 1022.42 1022.30 1022.22 1022.06 1021.94 1021.78 1021.62 1021.46 1021.26 1021.06 1020.78 1020.50 1020.14 1019.78 1019.38 1018.98 1018.58 1018.26 1017.94 1017.62 1017.26 1016.90 1016.62 1016.18 1015.74 1015.30 1014.70 1013.98 1013.58 1013.26 1013.10 1013.02 1012.90 1012.86 1012.90 1013.02 1012.98 1012.86 1012.38 1012.14 1012.38 1012.34
1023.98 1023.98 1024.02 1024.06 1024.06 1024.06 1023.98 1023.90 1023.78 1023.78 1023.78 1023.62 1023.42 1023.18 1023.02 1022.98 1022.94 1022.94 1022.86 1022.82 1022.78 1022.74 1022.70 1022.58 1022.38 1022.26 1022.14 1021.86 1021.62 1021.34 1021.06 1020.74 1020.46 1020.18 1019.86 1019.46 1019.02 1018.66 1018.34 1018.02 1017.62 1017.26 1016.94 1016.66 1016.34 1015.94 1015.46 1014.98 1014.42 1013.74 1013.14 1012.70 1012.54 1012.34 1012.26 1012.34 1012.38 1012.42 1012.26 1012.26 1011.74 1011.90 1011.78
1024.42 1024.42 1024.50 1024.50 1024.54 1024.50 1024.46 1024.38 1024.26 1024.18 1024.14 1024.02 1023.90 1023.70 1023.46 1023.30 1023.26 1023.22 1023.18 1023.14 1023.10 1023.06 1023.10 1022.94 1022.74 1022.58 1022.34 1022.06 1021.78 1021.46 1021.10 1020.74 1020.42 1020.10 1019.78 1019.46 1019.06 1018.70 1018.34 1018.02 1017.62 1017.30 1016.98 1016.66 1016.22 1015.94 1015.58 1015.26 1014.78 1014.30 1013.66 1012.90 1012.38 1011.98 1011.78 1011.78 1011.78 1011.82 1011.82 1011.70 1011.42 1011.18 1011.26
1024.74 1024.78 1024.82 1024.90 1024.94 1024.94 1024.86 1024.82 1024.74 1024.62 1024.50 1024.50 1024.34 1024.22 1024.10 1023.86 1023.74 1023.70 1023.66 1023.58 1023.50 1023.42 1023.34 1023.18 1023.06 1022.90 1022.58 1022.22 1021.90 1021.54 1021.18 1020.82 1020.46 1020.06 1019.66 1019.30 1018.94 1018.58 1018.26 1017.90 1017.54 1017.22 1016.98 1016.70 1016.26 1015.86 1015.50 1015.18 1014.78 1014.42 1013.98 1013.46 1012.98 1012.26 1011.62 1011.30 1011.18 1011.22 1011.22 1011.10 1011.02 1010.98 1010.94
1025.06 1025.06 1025.14 1025.22 1025.22 1025.18 1025.18 1025.14 1025.02 1024.98 1024.86 1024.78 1024.70 1024.58 1024.50 1024.38 1024.22 1024.14 1024.06 1023.94 1023.82 1023.66 1023.54 1023.34 1023.22 1023.02 1022.74 1022.42 1022.06 1021.74 1021.30 1020.82 1020.42 1020.10 1019.66 1019.26 1018.82 1018.42 1018.10 1017.78 1017.46 1017.14 1016.90 1016.58 1016.22 1015.86 1015.62 1015.38 1014.98 1014.54 1014.26 1013.82 1013.38 1013.06 1012.34 1011.38 1010.90 1010.78 1010.74 1010.66 1010.50 1010.42 1010.54
1025.42 1025.38 1025.46 1025.50 1025.50 1025.46 1025.42 1025.38 1025.34 1025.26 1025.10 1025.02 1024.94 1024.90 1024.82 1024.70 1024.58 1024.46 1024.34 1024.22 1024.06 1023.86 1023.70 1023.50 1023.34 1023.18 1022.98 1022.66 1022.30 1021.90 1021.46 1020.98 1020.50 1020.02 1019.62 1019.22 1018.82 1018.46 1018.14 1017.82 1017.46 1017.18 1016.90 1016.50 1016.34 1016.18 1016.02 1015.62 1015.30 1014.94 1014.50 1014.10 1013.62 1013.22 1012.50 1011.78 1011.02 1010.46 1010.18 1010.10 1010.02 1009.98 1009.94
1025.70 1025.74 1025.78 1025.82 1025.78 1025.78 1025.70 1025.66 1025.62 1025.50 1025.38 1025.30 1025.18 1025.14 1025.06 1024.94 1024.82 1024.66 1024.54 1024.42 1024.30 1024.10 1023.94 1023.78 1023.58 1023.50 1023.22 1022.82 1022.50 1022.06 1021.54 1021.06 1020.54 1020.10 1019.66 1019.30 1018.94 1018.58 1018.22 1017.90 1017.58 1017.18 1016.82 1016.62 1016.50 1016.26 1015.98 1015.78 1015.46 1015.02 1014.50 1014.26 1013.86 1013.54 1012.82 1011.90 1011.10 1010.34 1009.74 1009.46 1009.42 1009.34 1009.38
1026.02 1026.06 1026.14 1026.18 1026.18 1026.14 1026.06 1025.98 1025.90 1025.78 1025.66 1025.58 1025.50 1025.34 1025.30 1025.18 1025.06 1024.94 1024.82 1024.66 1024.50 1024.34 1024.18 1023.98 1023.90 1023.74 1023.46 1023.10 1022.58 1022.14 1021.66 1021.14 1020.74 1020.30 1019.86 1019.42 1018.98 1018.62 1018.30 1017.98 1017.62 1017.26 1017.02 1016.70 1016.38 1016.06 1015.78 1015.50 1015.26 1015.06 1014.62 1014.26 1013.90 1013.58 1013.06 1012.38 1011.42 1010.38 1009.62 1009.06 1008.78 1008.82 1008.90
1026.34 1026.46 1026.54 1026.50 1026.46 1026.46 1026.42 1026.30 1026.22 1026.10 1025.98 1025.86 1025.78 1025.66 1025.54 1025.38 1025.26 1025.14 1025.06 1024.94 1024.74 1024.58 1024.38 1024.18 1024.06 1023.78 1023.42 1023.06 1022.62 1022.18 1021.78 1021.34 1020.90 1020.46 1020.06 1019.66 1019.22 1018.74 1018.34 1017.98 1017.58 1017.18 1016.86 1016.58 1016.22 1015.86 1015.54 1015.26 1014.98 1014.66 1014.26 1013.94 1013.70 1013.50 1013.02 1012.38 1011.50 1010.70 1009.74 1008.82 1008.26 1008.22 1008.26
1026.74 1026.82 1026.82 1026.86 1026.86 1026.82 1026.74 1026.62 1026.54 1026.46 1026.34 1026.22 1026.10 1025.94 1025.78 1025.70 1025.58 1025.42 1025.26 1025.14 1024.98 1024.78 1024.58 1024.34 1024.18 1023.86 1023.50 1023.10 1022.74 1022.30 1021.90 1021.54 1021.10 1020.62 1020.26 1019.86 1019.38 1018.90 1018.46 1018.06 1017.70 1017.26 1016.86 1016.50 1016.14 1015.78 1015.42 1015.06 1014.70 1014.26 1013.74 1013.26 1012.86 1012.50 1012.38 1012.14 1011.34 1010.58 1009.74 1008.94 1008.14 1007.66 1007.62
1027.10 1027.14 1027.22 1027.26 1027.22 1027.14 1027.06 1026.94 1026.86 1026.74 1026.62 1026.54 1026.34 1026.14 1026.14 1025.98 1025.82 1025.74 1025.54 1025.42 1025.22 1025.02 1024.78 1024.46 1024.26 1023.94 1023.62 1023.22 1022.82 1022.38 1021.94 1021.66 1021.26 1020.86 1020.50 1020.06 1019.58 1019.06 1018.62 1018.18 1017.74 1017.34 1016.90 1016.42 1016.06 1015.86 1015.54 1014.98 1014.30 1013.74 1013.14 1012.46 1011.78 1011.34 1011.02 1010.82 1010.78 1010.30 1009.38 1009.06 1008.22 1007.42 1007.10
1027.38 1027.50 1027.50 1027.50 1027.50 1027.42 1027.34 1027.26 1027.18 1027.02 1026.90 1026.70 1026.58 1026.50 1026.38 1026.30 1026.14 1026.02 1025.86 1025.74 1025.54 1025.26 1024.94 1024.58 1024.34 1024.02 1023.66 1023.34 1022.94 1022.46 1022.10 1021.74 1021.34 1020.94 1020.62 1020.18 1019.70 1019.22 1018.78 1018.42 1017.98 1017.46 1016.94 1016.54 1016.18 1015.78 1015.46 1015.02 1014.34 1013.42 1012.42 1011.58 1010.94 1010.26 1009.94 1009.70 1009.38 1009.26 1009.06 1008.46 1007.86 1007.26 1006.70
1027.62 1027.70 1027.78 1027.78 1027.74 1027.66 1027.58 1027.42 1027.26 1027.22 1027.18 1027.14 1027.02 1026.94 1026.82 1026.62 1026.46 1026.34 1026.14 1025.98 1025.70 1025.42 1025.10 1024.70 1024.42 1024.10 1023.78 1023.42 1023.02 1022.58 1022.22 1021.78 1021.34 1020.94 1020.58 1020.26 1019.82 1019.30 1018.94 1018.54 1018.14 1017.66 1017.14 1016.74 1016.34 1016.06 1015.62 1014.90 1014.14 1013.26 1012.34 1011.30 1010.34 1009.74 1009.26 1008.82 1008.34 1007.78 1007.38 1007.42 1007.26 1006.82 1006.58
1027.86 1027.94 1027.98 1027.90 1027.78 1027.74 1027.70 1027.74 1027.66 1027.58 1027.42 1027.30 1027.18 1027.06 1026.86 1026.78 1026.70 1026.58 1026.38 1026.14 1025.86 1025.58 1025.30 1024.94 1024.70 1024.42 1024.10 1023.70 1023.14 1022.62 1022.26 1021.86 1021.46 1021.06 1020.66 1020.34 1019.86 1019.38 1019.02 1018.66 1018.18 1017.74 1017.30 1016.82 1016.26 1015.98 1015.58 1014.94 1014.02 1013.06 1012.02 1010.82 1009.86 1009.14 1008.62 1007.98 1007.62 1007.34 1006.74 1006.14 1006.06 1006.14 1006.10
1027.98 1028.06 1028.10 1027.98 1027.94 1027.98 1027.94 1027.90 1027.86 1027.86 1027.62 1027.50 1027.38 1027.22 1027.14 1027.02 1026.90 1026.78 1026.50 1026.30 1026.06 1025.82 1025.58 1025.14 1024.86 1024.58 1024.22 1023.82 1023.22 1022.78 1022.38 1021.94 1021.58 1021.26 1020.86 1020.46 1019.94 1019.50 1019.14 1018.70 1018.30 1017.94 1017.42 1016.90 1016.30 1015.86 1015.26 1014.66 1013.70 1012.78 1011.78 1010.62 1009.54 1008.74 1007.94 1007.10 1006.70 1006.46 1006.26 1006.06 1005.78 1005.58 1005.50
1028.02 1028.18 1028.18 1028.18 1028.22 1028.22 1028.22 1028.18 1028.10 1028.14 1027.94 1027.78 1027.50 1027.54 1027.38 1027.22 1027.02 1026.90 1026.70 1026.50 1026.18 1026.06 1025.78 1025.26 1024.86 1024.54 1024.18 1023.82 1023.46 1023.06 1022.62 1022.22 1021.82 1021.46 1021.02 1020.54 1020.06 1019.66 1019.26 1018.78 1018.38 1018.02 1017.62 1017.02 1016.42 1015.82 1015.10 1014.46 1013.62 1012.66 1011.62 1010.66 1009.54 1008.38 1007.34 1006.58 1006.02 1005.46 1005.18 1005.18 1005.14 1005.14 1005.22
1028.18 1028.22 1028.30 1028.46 1028.50 1028.38 1028.38 1028.38 1028.42 1028.26 1028.10 1027.98 1027.82 1027.78 1027.58 1027.50 1027.26 1026.98 1026.82 1026.66 1026.26 1026.14 1025.86 1025.34 1024.86 1024.62 1024.30 1023.98 1023.62 1023.30 1022.94 1022.54 1022.10 1021.66 1021.18 1020.66 1020.22 1019.82 1019.30 1018.82 1018.46 1018.14 1017.78 1017.22 1016.58 1015.82 1015.10 1014.42 1013.66 1012.74 1011.86 1011.02 1009.94 1008.86 1007.86 1007.06 1006.06 1005.22 1004.78 1004.78 1004.78 1004.86 1004.94
1028.34 1028.42 1028.50 1028.62 1028.62 1028.62 1028.62 1028.50 1028.38 1028.26 1028.14 1028.18 1028.02 1027.94 1027.82 1027.70 1027.54 1027.26 1027.06 1026.82 1026.50 1026.26 1025.94 1025.54 1025.18 1024.90 1024.58 1024.22 1023.94 1023.58 1023.26 1022.86 1022.50 1022.02 1021.50 1020.94 1020.42 1019.90 1019.50 1018.98 1018.46 1018.06 1017.70 1017.14 1016.50 1015.82 1015.10 1014.38 1013.74 1012.66 1012.02 1011.42 1010.46 1009.18 1008.14 1007.14 1006.50 1005.90 1004.98 1004.78 1004.74 1004.86 1004.98
1028.46 1028.66 1028.78 1028.70 1028.74 1028.70 1028.70 1028.58 1028.50 1028.38 1028.30 1028.26 1028.14 1028.02 1027.98 1027.90 1027.74 1027.50 1027.26 1027.02 1026.78 1026.46 1026.14 1025.78 1025.38 1025.06 1024.70 1024.38 1024.06 1023.78 1023.54 1023.26 1022.94 1022.42 1021.90 1021.38 1020.90 1020.38 1019.82 1019.30 1018.74 1018.14 1017.74 1017.18 1016.46 1015.74 1015.02 1014.30 1013.66 1012.90 1012.30 1011.78 1010.98 1009.86 1008.46 1007.50 1006.86 1006.34 1005.94 1005.62 1005.46 1005.46 1005.46
1028.78 1028.82 1028.86 1028.70 1028.38 1028.42 1028.66 1028.74 1028.66 1028.62 1028.54 1028.42 1028.22 1028.14 1028.14 1028.10 1027.98 1027.74 1027.42 1027.14 1026.90 1026.62 1026.30 1025.90 1025.58 1025.18 1024.86 1024.54 1024.26 1024.06 1023.82 1023.58 1023.26 1022.70 1022.22 1021.70 1021.22 1020.70 1020.26 1019.66 1019.06 1018.38 1017.86 1017.18 1016.50 1015.82 1015.06 1014.38 1013.66 1012.82 1012.42 1011.82 1010.70 1009.54 1008.58 1007.94 1007.42 1006.98 1006.66 1006.34 1006.10 1005.98 1005.94
1028.70 1028.78 1028.66 1028.66 1028.46 1028.34 1028.58 1028.54 1028.62 1028.62 1028.54 1028.38 1028.34 1028.22 1028.22 1028.22 1028.06 1027.78 1027.50 1027.18 1026.94 1026.70 1026.42 1026.06 1025.74 1025.46 1025.06 1024.74 1024.46 1024.18 1023.98 1023.70 1023.26 1022.78 1022.50 1022.10 1021.66 1021.18 1020.54 1020.02 1019.38 1018.74 1018.10 1017.30 1016.58 1015.94 1015.26 1014.58 1013.82 1013.38 1012.82 1011.86 1010.82 1009.86 1008.90 1008.38 1007.94 1007.58 1007.34 1007.02 1006.74 1006.62 1006.50
1028.74 1028.70 1028.62 1028.58 1028.46 1028.34 1028.34 1028.46 1028.50 1028.62 1028.70 1028.62 1028.54 1028.34 1028.34 1028.30 1028.10 1027.82 1027.62 1027.30 1026.98 1026.78 1026.54 1026.30 1025.90 1025.62 1025.30 1024.94 1024.62 1024.34 1023.98 1023.70 1023.34 1023.02 1022.66 1022.34 1021.86 1021.38 1020.82 1020.26 1019.70 1018.98 1018.26 1017.58 1016.90 1016.22 1015.50 1014.90 1014.50 1013.78 1013.02 1012.14 1011.14 1010.22 1009.50 1009.14 1008.66 1008.30 1007.94 1007.50 1007.26 1007.18 1007.10
Wind_Speed
5 4 4 4 4 4 6 6 6 6 6 6 7 8 7 7 6 5 5 4 4 4 3 5 5 5 5 5 5 5 6 6 5 6 5 5 6 3 6 9 9 9 9 8 8 8 7 7 7 2 4 5 6 7 10 10 9 9 10 9 9 8 8
4 4 3 4 5 5 6 6 7 6 6 7 7 8 8 7 6 6 5 5 5 5 4 4 5 5 6 6 6 4 4 5 4 5 5 6 6 7 5 6 7 8 7 8 8 7 6 6 9 9 7 2 6 7 7 10 9 9 9 10 9 8 5
4 4 4 6 5 5 7 7 6 6 6 6 7 8 8 8 7 6 6 6 6 6 5 5 5 6 6 5 6 5 5 5 5 5 7 6 6 7 7 6 5 4 6 7 7 7 7 9 10 7 6 7 7 6 7 9 11 10 9 8 10 7 9
5 5 6 7 6 7 7 6 6 5 5 6 5 6 8 8 7 7 7 7 5 5 5 6 5 5 5 5 5 6 6 6 5 7 7 7 6 6 6 6 7 7 6 7 7 7 7 6 8 10 9 8 9 8 6 10 9 11 10 9 9 8 9
6 6 7 7 7 7 7 7 6 6 7 6 7 7 9 9 8 8 7 7 7 7 8 7 7 7 6 5 5 4 4 5 6 7 7 8 8 7 6 5 7 6 7 7 8 7 8 9 8 9 8 5 7 8 5 6 9 9 11 11 11 10 9
7 8 7 8 7 7 7 8 8 8 8 8 9 9 9 10 8 8 8 8 8 8 9 9 9 10 9 7 6 5 4 5 5 6 7 7 7 8 7 6 6 7 8 7 7 8 7 7 8 8 9 7 8 5 5 5 5 6 8 9 9 9 10
8 8 8 8 8 7 8 8 8 7 7 8 8 9 8 8 7 7 7 9 8 9 9 8 8 9 10 9 8 8 7 6 7 8 7 7 6 7 7 8 7 7 7 7 6 7 8 7 8 9 9 6 7 9 4 4 4 5 5 9 9 8 9
8 8 8 8 8 9 8 8 8 8 8 7 8 8 9 8 8 7 8 8 8 9 9 9 8 8 9 9 8 9 8 8 9 9 8 8 8 8 7 7 7 7 7 7 6 6 7 9 9 9 7 7 7 7 7 5 5 9 8 6 8 8 9
7 7 8 7 7 7 7 7 7 7 7 7 7 7 8 8 8 8 7 9 9 9 9 9 9 8 9 8 7 7 7 6 7 9 9 9 9 8 7 6 7 7 7 7 7 7 7 9 10 9 8 6 10 10 6 8 7 9 10 8 5 10 9
9 9 8 8 8 7 7 6 6 6 6 6 6 6 7 8 8 9 8 8 9 9 9 9 9 9 9 7 8 8 8 8 8 7 7 8 10 10 8 8 7 7 7 7 7 7 7 8 8 8 8 8 9 9 9 6 8 8 7 9 7 7 10
7 7 6 6 6 7 7 7 6 7 7 6 6 5 6 8 8 10 8 8 9 9 9 8 10 9 10 7 9 8 8 9 8 7 6 7 8 9 10 9 6 6 7 7 7 7 7 7 8 8 8 7 8 8 9 8 8 6 4 5 9 7 7
6 6 5 5 5 7 7 7 7 7 6 6 6 7 7 7 8 8 7 8 8 9 9 10 11 10 11 9 10 8 9 10 9 9 8 8 8 8 9 10 10 8 7 8 8 7 7 7 7 7 8 8 9 11 12 10 9 7 6 8 8 9 7
7 7 6 6 7 7 7 7 8 8 8 7 6 7 8 9 9 8 8 9 9 10 11 11 12 12 11 9 10 9 10 11 11 10 9 8 7 8 9 9 9 9 10 8 7 8 8 8 8 8 8 9 9 9 9 9 10 13 6 7 7 7 9
9 8 8 8 7 8 8 8 8 8 8 9 9 8 10 10 10 10 10 10 10 11 11 12 11 10 11 12 11 11 11 10 11 9 10 11 9 9 10 11 11 10 10 11 10 9 8 9 8 8 8 8 9 9 8 8 10 11 9 6 6 6 6
8 8 9 9 9 9 8 8 8 9 9 9 9 9 10 9 10 11 10 11 11 11 11 12 12 11 11 12 11 9 10 11 11 10 10 10 10 8 9 10 11 12 11 10 10 11 11 10 9 8 8 8 8 9 9 9 11 9 12 6 6 6 5
8 9 10 9 10 9 9 9 9 10 9 8 9 9 10 10 10 10 10 10 11 11 12 11 11 11 11 12 12 11 11 11 10 10 10 10 10 9 9 9 10 10 9 11 11 10 11 12 11 11 11 11 10 10 10 10 9 10 11 11 8 8 8
9 9 9 8 10 10 9 9 9 10 9 8 9 9 10 10 10 10 10 11 11 12 12 12 12 11 12 12 11 11 11 11 10 10 9 10 10 10 10 10 9 10 11 11 11 10 10 11 12 12 13 12 11 12 10 9 11 11 9 11 9 9 8
8 9 9 8 10 9 9 9 9 10 9 10 10 10 10 10 10 11 10 11 11 12 12 12 13 13 12 11 12 11 11 11 10 11 11 10 11 11 11 10 11 11 11 11 11 10 10 13 11 12 12 12 11 11 10 9 9 10 10 11 10 7 8
7 8 8 8 8 8 8 8 8 8 9 9 9 9 9 9 10 11 11 11 11 11 11 11 12 13 12 13 12 11 11 11 11 11 11 12 10 10 10 11 12 12 11 11 10 10 10 13 12 12 13 13 13 13 12 10 10 10 11 11 11 9 7
6 6 6 6 6 7 7 8 8 9 8 8 9 8 9 9 9 9 9 9 10 10 10 10 11 12 13 13 13 12 12 12 12 10 11 12 11 9 8 9 11 11 11 11 11 10 11 13 11 14 14 14 12 13 14 12 10 10 10 10 10 11 9
7 7 7 7 7 7 6 7 7 7 7 9 9 8 8 8 7 7 8 8 9 9 9 9 12 14 13 12 13 12 12 11 12 12 12 12 11 11 11 11 11 11 11 10 11 11 11 9 10 12 11 11 11 14 14 13 13 12 12 12 10 10 9
7 8 8 8 8 8 8 8 7 7 7 7 7 7 7 8 8 8 8 8 9 8 8 9 11 13 14 14 12 12 12 11 12 12 12 12 12 11 11 11 11 12 14 18 17 14 13 13 9 10 11 11 12 13 14 13 13 13 13 13 10 9 9
8 8 8 8 8 8 8 8 8 8 8 8 7 7 8 7 8 9 10 10 9 8 8 8 18 21 18 15 13 9 9 10 11 11 12 12 11 12 12 12 12 19 19 19 16 15 15 16 18 14 11 9 11 13 13 14 13 12 12 13 10 10 10
8 8 7 8 8 8 8 7 8 8 8 8 9 8 8 8 10 9 10 10 11 8 8 12 22 18 20 22 16 12 10 9 11 10 11 12 11 12 12 13 13 15 15 15 14 17 16 17 16 17 20 21 19 14 14 14 13 11 12 12 11 11 10
8 8 8 8 7 7 7 8 8 8 8 9 8 7 10 8 9 9 9 8 10 9 9 17 19 20 20 21 21 13 8 8 9 10 11 11 11 11 12 12 12 10 11 14 16 15 17 19 19 21 22 22 21 22 20 17 15 13 13 13 12 11 10
8 8 7 7 6 7 7 8 8 8 9 7 7 10 9 9 9 9 9 10 10 10 10 16 19 20 20 21 21 16 8 9 9 10 10 11 12 11 11 11 11 11 11 20 16 14 15 17 21 24 24 23 23 22 22 22 22 20 12 14 15 13 11
7 7 6 6 6 7 7 7 7 6 7 8 9 9 9 9 9 10 9 9 9 9 9 15 19 21 20 21 20 14 8 9 9 9 10 11 10 11 12 12 12 12 13 15 14 15 16 17 18 18 18 17 16 17 18 21 22 24 21 16 14 15 11
7 6 6 6 6 6 7 7 8 7 7 7 7 7 7 8 8 7 9 9 8 9 9 19 19 21 21 21 20 12 9 8 8 9 9 10 11 11 12 11 13 13 14 14 13 18 19 18 18 16 16 17 18 16 14 14 15 14 14 13 13 13 13
6 6 6 6 7 8 7 7 7 6 6 7 6 6 7 6 8 9 8 9 9 10 10 16 18 20 20 20 19 10 10 11 11 11 11 11 11 11 12 12 13 13 14 15 18 23 23 18 17 16 16 16 16 14 13 13 17 18 16 11 10 11 12
6 5 5 6 7 6 6 7 7 6 7 7 7 7 7 7 6 7 9 9 9 9 10 14 17 19 19 20 16 12 11 11 11 12 12 12 11 12 12 14 14 13 14 15 21 25 25 24 16 16 15 15 15 13 13 11 14 19 22 23 19 16 15
5 5 5 6 5 4 5 4 5 4 6 6 7 7 6 7 7 7 8 8 9 9 9 12 18 19 21 21 18 13 12 11 12 12 12 12 11 11 14 22 20 15 15 16 24 26 25 22 15 15 15 17 16 13 12 11 9 10 17 20 19 18 16
5 5 5 4 3 4 4 4 3 4 5 5 6 6 6 7 7 7 8 8 11 11 9 12 18 20 21 21 18 13 12 11 12 12 13 12 12 12 12 14 20 18 18 20 25 24 25 20 14 14 14 15 15 14 12 14 12 10 7 5 6 8 8
4 4 3 3 3 3 2 3 6 5 5 5 6 6 6 6 7 7 7 8 9 9 10 10 14 19 19 20 20 13 9 12 13 13 12 12 13 13 12 12 15 19 23 24 23 23 22 23 15 12 12 14 14 15 12 12 10 11 6 3 2 3 3
3 2 1 1 1 2 3 4 5 6 6 6 6 6 7 7 7 7 7 7 7 8 8 10 12 17 18 19 20 17 9 12 13 11 11 12 12 12 12 12 11 19 24 24 23 23 23 23 20 14 12 14 14 16 13 10 12 14 7 5 5 5 5
1 1 1 1 4 4 3 3 3 4 5 5 6 6 6 6 6 7 7 7 7 8 9 13 12 15 18 19 18 20 12 11 13 11 11 11 12 12 11 12 11 18 24 23 22 22 23 23 22 13 17 22 21 20 13 9 9 9 8 7 7 7 7
1 1 2 2 3 3 3 4 4 4 5 6 6 7 7 7 7 7 7 7 7 7 8 8 13 12 16 18 18 18 18 14 17 12 11 12 13 11 10 12 14 22 22 24 23 23 22 24 18 18 25 22 20 19 14 10 9 9 9 8 9 9 9
1 2 2 1 2 3 5 4 2 4 4 5 6 6 6 6 7 7 8 8 8 7 7 7 8 12 12 17 17 19 18 18 18 12 9 8 10 11 12 12 15 22 22 23 23 23 22 22 19 24 23 23 20 16 12 12 10 9 8 10 11 11 10
Wind_Direction
52 57 30 35 35 40 48 38 35 30 25 30 37 34 26 16 0 351 346 347 348 332 328 318 301 294 291 286 275 271 282 276 260 241 236 222 250 248 212 230 227 233 233 228 234 235 258 277 276 238 239 219 206 220 225 230 228 221 221 216 216 209 205
53 53 48 38 37 25 47 35 37 25 23 24 31 35 25 14 6 352 352 1 355 344 341 319 305 300 292 291 291 283 281 288 289 286 275 259 234 243 243 240 233 232 225 223 228 214 224 240 258 260 261 207 222 221 216 223 227 224 222 222 218 210 205
51 50 48 42 34 22 41 34 28 26 18 18 19 30 23 16 7 1 7 11 354 340 339 320 312 303 293 282 273 268 268 270 264 275 281 276 258 254 237 248 247 244 234 232 221 220 229 228 250 251 233 223 230 232 204 217 219 223 225 224 227 201 211
40 46 45 36 28 30 33 27 27 21 18 23 13 22 30 15 7 7 13 11 1 353 346 337 323 309 293 290 283 274 263 264 277 272 263 266 281 280 257 240 237 237 226 233 232 222 227 235 238 245 251 236 234 250 213 217 213 218 221 218 216 208 210
42 45 45 37 24 27 23 23 15 22 19 16 17 23 22 9 7 11 5 17 17 16 12 350 338 324 311 296 277 260 269 274 279 286 282 272 263 260 255 241 243 235 232 231 244 233 221 235 233 246 245 237 245 240 235 214 219 217 217 218 218 213 204
44 43 41 39 24 29 21 27 21 23 18 17 14 16 11 8 4 5 5 22 18 21 21 13 4 358 348 330 306 296 284 283 277 276 283 280 280 281 282 266 252 242 242 239 238 243 243 244 240 250 247 231 246 247 243 214 232 223 218 218 216 212 212
45 46 45 43 34 36 32 33 28 23 23 19 11 13 357 1 2 2 5 36 30 24 21 14 12 8 2 349 345 334 326 315 304 294 283 278 277 272 267 270 262 257 250 248 236 241 245 244 244 242 254 239 234 249 243 223 230 221 233 229 224 216 210
54 53 51 47 41 39 34 36 30 24 24 17 13 7 2 4 2 6 19 37 27 25 16 12 9 10 6 359 358 355 354 358 345 327 307 291 290 282 262 250 257 256 255 251 246 246 244 243 244 246 241 253 253 238 245 232 239 221 238 231 213 214 215
53 56 52 47 46 45 43 39 32 27 22 17 12 10 8 5 4 10 18 38 26 25 18 11 9 8 2 359 353 353 349 356 340 337 332 322 306 290 278 268 262 261 259 258 248 239 241 246 246 246 240 220 248 259 232 246 231 242 227 240 225 220 214
50 51 52 49 47 45 44 40 35 29 24 21 14 11 11 12 8 15 12 33 24 22 16 14 12 8 0 360 353 344 346 345 340 336 332 333 329 318 300 278 268 265 263 263 256 248 248 252 250 249 241 232 235 248 257 245 241 238 238 216 236 231 219
50 50 49 52 50 50 43 37 33 29 23 16 16 18 20 19 16 17 11 28 23 21 16 14 11 9 4 4 354 348 343 340 333 331 340 333 326 325 320 312 280 263 263 259 257 251 247 248 252 251 250 241 237 247 249 252 258 205 240 200 212 230 203
35 37 35 37 44 52 47 40 33 26 16 15 16 20 24 22 19 15 11 23 19 17 22 18 11 8 6 359 357 350 350 349 344 337 340 339 331 329 326 321 319 300 279 268 264 258 249 246 246 248 247 238 231 234 245 252 266 248 179 229 227 221 214
33 29 22 27 31 35 40 43 37 29 18 6 15 26 30 25 22 19 15 22 21 21 18 14 10 9 4 4 355 352 347 345 341 339 336 338 334 330 325 323 321 320 316 299 273 262 260 251 245 247 244 249 247 235 235 240 241 259 217 216 233 226 215
32 25 23 19 30 26 27 32 43 36 21 16 9 15 28 27 25 25 22 22 23 21 12 9 9 4 2 357 355 348 342 339 336 331 331 332 337 335 334 327 322 318 320 313 308 295 275 261 251 243 239 244 247 245 241 242 244 251 254 203 231 234 222
37 32 32 26 26 23 21 19 35 39 29 20 18 15 26 29 28 26 25 22 21 17 12 13 7 3 359 353 349 348 344 336 333 327 329 328 330 331 329 328 326 324 321 315 314 312 306 290 264 249 241 235 238 244 235 242 242 249 262 235 229 232 238
39 36 36 30 28 25 23 20 29 36 28 21 21 24 29 32 30 28 27 24 19 17 12 10 4 1 357 352 346 342 340 335 329 326 326 323 320 320 321 323 319 320 321 319 316 309 309 305 297 276 259 250 245 240 238 233 242 246 248 255 230 233 222
43 39 38 31 30 27 25 24 30 33 26 19 21 21 34 32 31 28 26 22 21 16 13 5 1 0 355 350 343 337 334 331 327 322 317 318 317 318 317 316 317 318 317 315 314 313 311 307 304 304 288 270 253 249 238 234 233 239 245 255 237 220 224
46 43 41 35 34 31 30 29 30 33 27 28 25 24 28 31 31 27 23 20 16 16 11 6 3 357 352 348 342 337 332 328 324 323 321 315 315 318 313 313 312 316 315 312 311 312 315 314 310 307 304 298 280 262 254 240 235 232 239 243 251 226 213
49 48 45 42 38 37 36 33 30 30 31 30 28 29 26 26 29 25 22 18 15 14 7 6 4 358 352 348 343 339 336 331 326 322 322 321 308 309 308 308 312 313 312 310 309 307 307 309 312 308 307 306 309 298 271 245 235 235 233 242 244 247 206
46 44 39 38 37 37 39 36 34 33 27 31 32 28 26 28 24 23 17 13 12 8 4 1 3 358 353 349 345 341 337 335 332 330 326 321 314 300 299 309 318 320 315 312 308 316 324 319 313 310 306 304 301 301 300 282 258 240 240 241 241 238 238
45 44 40 33 30 27 26 29 33 33 29 31 31 27 24 21 19 18 14 12 9 7 2 3 5 0 354 349 346 339 336 335 336 334 332 333 334 332 327 324 323 321 318 319 327 321 317 314 317 311 310 307 306 302 292 290 282 261 248 243 239 243 229
45 44 39 35 31 29 26 23 21 23 28 29 27 27 21 20 18 16 15 12 8 7 8 5 7 358 354 350 346 341 338 337 339 338 336 336 332 330 328 325 323 320 323 322 315 307 302 302 301 304 304 304 303 300 297 292 284 274 259 247 240 233 237
46 45 37 34 31 28 27 25 24 24 23 23 24 21 21 20 20 20 15 12 12 11 8 9 359 354 356 355 346 341 336 340 341 340 340 335 329 330 331 329 324 326 325 322 314 306 305 307 307 303 297 296 297 295 289 289 285 280 270 250 233 232 233
47 43 35 35 31 28 26 24 25 24 24 22 21 19 19 19 18 15 15 11 11 8 5 4 356 354 354 355 354 343 337 335 341 340 340 335 330 329 331 331 327 325 326 323 322 317 313 310 302 298 296 291 283 276 281 276 268 272 273 263 246 229 232
48 41 39 35 30 27 25 26 27 24 23 21 17 19 24 16 16 12 10 6 9 5 359 359 356 355 354 354 354 348 338 338 337 341 341 336 330 328 328 329 327 323 322 324 325 324 318 312 306 300 294 285 279 273 258 249 259 262 255 263 256 241 229
51 46 39 34 30 29 27 27 25 22 21 14 18 25 16 16 14 9 9 7 3 2 355 356 355 355 354 353 350 349 344 338 335 337 337 336 334 332 330 328 327 323 321 326 327 323 320 317 311 303 293 286 277 266 263 258 241 239 253 253 260 258 241
54 47 39 35 32 29 29 28 22 21 19 16 22 18 14 13 10 10 7 2 356 356 354 355 354 356 355 354 349 345 342 338 333 331 336 335 334 335 334 332 328 327 327 326 324 325 324 317 312 307 304 300 292 283 272 260 258 245 235 238 242 248 246
55 46 38 34 33 34 30 23 23 17 19 18 18 11 8 7 5 3 360 357 354 355 354 352 355 355 355 353 348 345 342 336 334 335 334 334 334 336 337 333 331 328 326 326 325 327 324 319 314 305 299 298 299 291 278 273 264 257 239 222 230 237 245
56 47 40 36 37 30 27 23 20 4 12 14 12 11 10 9 6 0 356 355 355 355 348 348 354 354 353 353 348 349 344 345 343 341 339 339 334 340 341 337 337 334 330 326 326 326 324 320 313 307 302 300 299 293 280 263 259 261 266 257 225 222 234
62 51 41 44 35 27 21 15 13 6 17 12 12 10 6 2 355 358 356 358 352 353 348 346 351 354 354 355 355 354 350 347 347 346 343 340 338 341 342 342 342 337 332 329 328 327 325 328 317 312 308 310 308 297 286 278 259 251 250 255 256 245 235
70 57 50 44 30 17 12 13 20 9 26 9 12 1 352 357 354 355 354 352 353 354 342 344 352 355 357 357 360 357 352 349 346 347 342 343 343 340 338 342 343 341 336 332 331 328 327 329 322 319 321 321 318 314 304 300 288 262 237 237 242 245 244
75 68 60 35 27 26 14 17 350 8 19 15 7 355 357 1 353 354 354 347 349 359 346 350 354 354 355 357 360 358 354 351 348 348 348 346 346 343 337 340 340 339 338 334 331 331 330 332 325 328 330 324 321 318 318 318 310 284 248 229 239 241 251
69 70 64 40 28 24 356 15 13 14 10 13 0 359 358 1 359 352 345 350 349 352 350 351 353 351 353 354 359 359 355 0 354 347 349 349 348 347 343 340 339 339 339 336 334 334 333 337 335 327 336 334 325 321 316 319 327 326 323 334 347 8 338
69 37 4 17 17 35 26 22 13 18 4 358 4 4 4 356 356 350 346 345 343 349 352 351 352 351 352 355 358 3 359 3 355 350 350 350 351 346 345 342 335 340 339 336 337 338 340 343 343 346 342 333 322 315 319 346 344 344 357 12 37 33 27
62 70 31 43 49 27 9 20 28 15 6 8 6 2 359 359 354 346 343 342 347 344 346 354 2 353 354 355 357 2 5 359 357 355 352 356 353 351 344 341 340 338 339 340 342 343 345 347 346 355 345 335 333 346 346 354 359 2 9 12 19 28 20
46 44 49 50 61 31 359 16 13 21 17 11 12 3 359 353 353 352 348 351 348 347 345 345 354 355 352 354 357 360 2 1 358 4 2 357 352 344 342 343 340 341 342 346 348 348 349 352 356 352 344 342 345 353 1 6 5 11 12 18 25 28 22
54 42 50 42 57 35 12 356 1 28 11 18 7 359 357 352 356 360 357 350 351 347 343 341 340 348 350 355 357 359 359 1 3 3 1 357 351 349 346 346 343 343 348 351 351 351 352 357 354 349 348 347 352 2 14 10 10 8 12 23 25 24 18